Location: Αθήνα
(37.9839°N, 23.7283°E)
Time: 22:44:43
(UTC+03:00)

EO-79 - Pass Details

Date: 24 June 2024
Orbit: 555 x 577 km, 98.0° (Epoch: 18 July)

Event Time Altitude Azimuth Distance (km) Brightness Sun altitude
Rises 04:02:13 0° 25° (NNE) 2,745 ? -18.7°
Reaches altitude 10° 04:04:36 10° 37° (NE) 1,844 ? -18.4°
Maximum altitude 04:08:03 28° 97° (E) 1,060 ? -18.0°
Enters shadow 04:11:06 12° 154° (SSE) 1,697 ? -17.6°
